Weather History for KPBF - September, 2013

Change the Weather History Date:

Monday, September 2, 2013

  Actual Average Record
Temperature  
Mean Temperature 84 °F 79 °F  
Max Temperature 92 °F 90 °F 106 °F (1947)
Min Temperature 76 °F 68 °F 52 °F (1886)
Degree Days  
Heating Degree Days 0 0  
Month to date heating degree days 0 0  
Since 1 July heating degree days 0 0  
Cooling Degree Days 19 14  
Month to date cooling degree days 42 28  
Year to date cooling degree days 1706 1786  
Growing Degree Days 33 (Base 50)    
Moisture  
Dew Point 72 °F    
Average Humidity 70    
Maximum Humidity 88    
Minimum Humidity 52    
Precipitation  
Precipitation 0.00 in 0.07 in 2.42 in (1902)
Month to date precipitation 0.18 0.14  
Year to date precipitation 33.81 33.33  
Snow  
Snow 0.00 in 0.00 in - ()
Month to date snowfall 0.0 0.0  
Since 1 July snowfall 0.0 0.0  
Since 1 September snowfall 0.0 0.0  
Snow Depth 0.00 in    
Sea Level Pressure  
Sea Level Pressure 29.89 in    
Wind  
Wind Speed 4 mph (SW)    
Max Wind Speed 12 mph    
Max Gust Speed 14 mph    
Visibility 10 miles    
Events      
T = Trace of Precipitation, MM = Missing Value Source: NWS Daily Summary

Daily Weather History Graph

Daily Weather History Graph

Search for Another Location

Airport or City:

Trip Planner

Search our weather history database for the weather conditions in past years. The results will help you decide how hot, cold, wet, or windy it might be!

Date:

Astronomy

Sep. 02, 2013 Rise Set
Actual Time 6:42 AM CDT 7:31 PM CDT
Civil Twilight 6:16 AM CDT 7:57 PM CDT
Nautical Twilight 5:46 AM CDT 8:27 PM CDT
Astronomical Twilight 5:15 AM CDT 8:58 PM CDT
Moon 4:03 AM CDT (9/2) 5:42 PM CDT (9/2)
Length of Visible Light 13h 40m
Length of Day
12h 49m
Waning Crescent, 8% of the Moon is Illuminated
Sep 2
Waning Crescent
Sep 5
New
Sep 12
First Quarter
Sep 19
Full
Sep 26
Last Quarter

Hourly Weather History & Observations

Time (CDT) Temp. Heat Index Dew Point Humidity Pressure Visibility Wind Dir Wind Speed Gust Speed Precip Events Conditions
12:53 AM 78.1 °F - 72.0 °F 81% 29.86 in 10.0 mi Calm Calm - N/A   Partly Cloudy
1:53 AM 79.0 °F - 71.1 °F 77% 29.85 in 10.0 mi WNW 4.6 mph - N/A   Clear
2:53 AM 77.0 °F - 72.0 °F 84% 29.84 in 10.0 mi Calm Calm - N/A   Clear
3:53 AM 77.0 °F - 72.0 °F 84% 29.85 in 10.0 mi SW 4.6 mph - N/A   Clear
4:53 AM 78.1 °F - 71.1 °F 79% 29.85 in 10.0 mi Calm Calm - N/A   Clear
5:53 AM 77.0 °F - 71.1 °F 82% 29.87 in 10.0 mi SW 5.8 mph - N/A   Clear
6:53 AM 75.9 °F - 71.1 °F 85% 29.89 in 10.0 mi Calm Calm - N/A   Clear
7:53 AM 79.0 °F - 71.1 °F 77% 29.89 in 10.0 mi West 5.8 mph - N/A   Clear
8:53 AM 82.0 °F 85.9 °F 70.0 °F 67% 29.90 in 10.0 mi West 8.1 mph - N/A   Clear
9:53 AM 86.0 °F 91.5 °F 71.1 °F 61% 29.94 in 10.0 mi Variable 5.8 mph - N/A   Partly Cloudy
10:53 AM 86.0 °F 91.5 °F 71.1 °F 61% 29.95 in 10.0 mi North 4.6 mph - N/A   Clear
11:53 AM 86.0 °F 93.0 °F 73.0 °F 65% 29.96 in 10.0 mi ESE 4.6 mph - N/A   Partly Cloudy
12:53 PM 84.9 °F 90.7 °F 72.0 °F 65% 29.95 in 10.0 mi ESE 6.9 mph - N/A   Clear
1:53 PM 87.1 °F 95.4 °F 73.9 °F 65% 29.92 in 10.0 mi ESE 8.1 mph - N/A   Clear
2:53 PM 90.0 °F 97.9 °F 73.0 °F 57% 29.89 in 10.0 mi Variable 3.5 mph - N/A   Partly Cloudy
3:53 PM 91.0 °F 99.3 °F 73.0 °F 55% 29.86 in 10.0 mi South 9.2 mph - N/A   Partly Cloudy
4:53 PM 91.0 °F 97.6 °F 71.1 °F 52% 29.85 in 10.0 mi South 6.9 mph - N/A   Mostly Cloudy
5:53 PM 89.1 °F 96.0 °F 72.0 °F 57% 29.86 in 10.0 mi WSW 6.9 mph - N/A   Partly Cloudy
6:53 PM 87.1 °F 92.0 °F 70.0 °F 57% 29.86 in 10.0 mi West 3.5 mph - N/A   Mostly Cloudy
7:53 PM 82.9 °F 87.5 °F 71.1 °F 67% 29.87 in 10.0 mi Calm Calm - N/A   Partly Cloudy
8:53 PM 81.0 °F 85.8 °F 73.0 °F 77% 29.88 in 10.0 mi Calm Calm - N/A   Partly Cloudy
9:53 PM 78.1 °F - 73.0 °F 84% 29.89 in 10.0 mi Calm Calm - N/A   Clear
10:53 PM 77.0 °F - 73.9 °F 90% 29.90 in 10.0 mi Calm Calm - N/A   Clear
11:53 PM 77.0 °F - 73.9 °F 90% 29.91 in 8.0 mi Calm Calm - N/A   Mostly Cloudy